COSMOS 593

Satellite information

Favourite Embed

Satellite Type and Status

PAYLOADIN ORBIT

Key statistics

Satellite COSMOS 593 at a glance.

Uptime

18851

Days in orbit

Revolutions

≈ 12.6

Per day

Orbit

LEO

Low Earth Orbit

Inclination

74.0

Latest

Satellite identification and parameters

Extended collection of information and parameters for COSMOS 593.

Object identification

Identified? True

Debris? False

Object name: COSMOS 593

International designator: 1973-069F

Object number (NORAD): 6850

Object ID (CCSDS): 6850

Country: COMMONWEALTH OF INDEPENDENT STATES (CIS)

Current information (Y/N): Y

RCS size: MEDIUM

Orbital parameters

Period: 114.312 minutes

Inclination: 74.0033 deg

SMA: 7802.27 km

Apoapsis: 1484.696 km

Periapsis: 1363.574 km

RAAN: 1.8031 deg

Eccentricy: 0.007762

Argument of periapsis: 124.9045 deg

Mean anomaly: 268.8333 deg

Mean motion: 12.59712098 rev/day

Mean motion (dot): 0.00000018 rev/day2

B* drag term: 0.00019448 1/REarth

Two-line elements (TLE)

Creation date: May 12, 2025, 2:31 a.m.

Reference frame: TEME

Reference center: EARTH

Epoch: May 11, 2025, 10:16 p.m. UTC

TLE line 0: 0 COSMOS 593

TLE line 1: 1 06850U 73069F 25131.92783332 .00000018 00000-0 19448-3 0 9991

TLE line 2: 2 06850 74.0033 1.8031 0077620 124.9045 268.8333 12.59712098373020

Live tracking on map

Real-time ground track for satellite COSMOS 593.

In-orbit conjunctions

A list of the most updated potential collisions computed for object COSMOS 593.

Target Orbit TCA Probability of collision Miss distance Type
SL-14 DEB LEO 2024-09-10 03:31:41 0.0001132002 217.0 (m) DEBRIS

Associated space launch

Military communications satellites

COSMOS 593 was lifted into orbit during the mission ‘Kosmos-3M | Strela-1M 49-56’, on board a Kosmos-3M space rocket.

The launch took place on Oct. 2, 1973, 9:46 p.m. from 132/2.

For more information about the launch, click the button.

Launch to space Kosmos-3M | Strela-1M 49-56
Kosmos-3M | Strela-1M 49-56

Agency: N/A

Status: Launch Successful

Launch date: Oct. 2, 1973, 9:46 p.m. UTC

Rocket: Kosmos-3M

Launch pad: 132/2

Location: Plesetsk Cosmodrome, Russian Federation

...

Latest news about this satellite

There are no fresh news available about this satellite. Check back as we update our databases every day.


Newsletter sign-up

Weekly statistics, charts and insights to help you stay on top of the space industry.